Location: Chevoux
(46.3801°N, 4.9476°E)
Time: 12:11:56
(UTC+00:00)

Vanguard 3 - Visible Passes

Search period start: 13 May 2021 00:00
Search period end: 23 May 2021 00:00
Orbit: 508 x 3262 km, 33.3° (Epoch: 12 May)

Date Brightness Start Highest point End Pass type
(mag) Time Alt. Az. Time Alt. Az. Time Alt. Az.
13 May 9.8 19:57:48 10° WSW 20:15:11 49° S 20:25:47 13° ESE visible
13 May 9.5 22:15:06 10° W 22:27:47 32° SSW 22:30:19 29° S visible
14 May 9.6 20:57:13 10° W 21:13:09 42° SSW 21:20:08 23° SSE visible
14 May 10.0 23:15:55 10° W 23:24:30 19° SW 23:24:40 19° SW visible
15 May 10.0 19:39:45 10° WSW 19:57:43 50° S 20:09:56 10° ESE visible
15 May 9.7 21:57:09 10° W 22:10:30 31° SW 22:14:28 26° S visible
16 May 9.8 20:39:12 10° W 20:55:43 42° SSW 21:04:15 20° SSE visible
16 May 10.1 22:58:18 10° W 23:07:12 19° SW 23:08:47 18° SW visible
17 May 10.1 19:21:47 10° W 19:40:09 50° SSW 19:53:22 10° ESE visible
17 May 9.9 21:39:14 10° W 21:53:06 30° SW 21:58:34 23° S visible
18 May 10.1 20:21:14 10° W 20:38:11 41° SSW 20:48:21 16° SSE visible
18 May 10.3 22:40:44 10° W 22:49:46 18° SW 22:52:53 16° SSW visible
19 May 10.1 21:21:22 10° W 21:35:33 29° SW 21:42:41 19° S visible
20 May 10.3 20:03:22 10° W 20:20:30 40° SSW 20:32:28 12° SSE visible
20 May 10.5 22:23:18 10° W 22:32:14 17° SW 22:37:00 14° SSW visible
21 May 10.3 21:03:36 10° W 21:17:53 28° SW 21:26:49 15° S visible
22 May 10.5 19:45:36 10° W 20:02:44 39° SSW 20:16:12 10° SSE visible
22 May 10.6 22:06:03 10° W 22:14:35 16° SW 22:21:10 11° SSW visible
